Cloud_Cover
0 4 1 1 16 5 1 0 2 5 2 33 5 9 19 100 100 100 100 79 67 91 67 24 69 91 7 91 100 31 100 100 100 100 100 100 70 100 100 100 26 5 0
11 0 2 4 5 8 5 0 0 3 5 27 0 0 0 100 88 100 100 100 93 98 79 64 77 67 34 99 22 5 100 100 100 100 91 100 100 100 93 78 100 5 0
4 0 0 0 0 1 10 7 2 0 0 8 17 15 0 42 82 100 100 100 100 86 87 100 99 61 13 81 6 5 64 100 100 100 100 100 100 100 62 63 100 98 6
2 0 0 5 0 0 12 11 3 0 0 0 1 1 1 0 0 16 77 100 100 98 100 93 71 65 34 100 6 5 5 70 99 100 100 89 80 100 100 59 100 100 54
31 3 3 5 4 0 0 4 5 6 0 0 0 0 0 0 0 6 63 100 100 100 100 100 99 76 82 100 13 5 5 45 100 100 100 93 43 100 96 100 64 96 73
100 100 97 14 5 4 0 0 5 14 5 2 0 0 0 0 0 0 28 35 100 100 100 100 100 89 100 100 14 5 5 5 96 100 100 78 100 100 100 93 100 30 54
78 98 24 0 0 0 0 0 3 5 18 4 0 0 0 0 0 1 0 0 21 100 100 100 100 100 100 100 82 35 44 5 88 100 100 100 53 100 100 94 82 17 54
15 46 1 0 0 0 0 4 2 7 9 3 0 0 0 0 0 0 4 2 1 40 100 100 100 100 100 99 100 100 76 12 47 100 100 100 86 100 100 100 69 100 64
0 0 10 0 0 0 0 20 41 88 5 0 4 4 0 0 0 0 55 0 5 5 81 100 70 100 100 100 100 98 100 14 69 100 100 100 72 100 100 100 11 100 44
0 0 0 0 0 0 0 64 100 62 5 5 1 0 0 14 0 0 8 0 0 5 97 57 99 80 100 100 100 100 100 98 100 100 100 100 55 84 100 100 96 100 93
0 0 0 0 0 1 0 0 91 100 56 0 62 0 8 41 0 0 0 0 0 4 91 98 14 28 33 100 100 100 100 100 100 100 100 100 100 77 100 100 68 100 86
9 0 0 0 0 0 0 0 100 100 9 3 24 87 10 60 65 0 0 0 0 0 6 100 100 83 5 11 68 100 100 100 100 100 100 98 28 100 100 80 58 100 100
1 0 0 0 0 0 0 9 57 95 35 6 81 57 100 3 41 37 0 0 0 0 0 100 100 96 38 6 70 100 100 100 100 100 100 99 6 69 100 4 56 91 100
0 0 0 0 0 2 1 0 4 14 10 51 4 8 18 1 6 16 0 0 0 0 0 20 96 56 9 90 11 100 100 100 100 100 98 82 5 22 16 0 0 86 100
0 0 0 0 5 1 0 0 5 58 5 14 85 8 1 4 95 41 0 0 0 1 68 3 41 100 100 99 11 100 100 100 100 100 100 100 57 5 5 86 9 91 100
5 0 0 0 1 4 5 1 3 5 5 5 43 93 6 5 0 0 0 0 2 100 100 27 72 100 100 100 7 94 100 93 100 100 100 100 72 3 100 100 27 100 100
0 0 0 0 0 2 6 2 1 5 54 4 4 14 5 3 7 5 5 4 64 100 100 100 69 100 100 77 99 98 96 100 100 100 100 99 77 30 100 100 100 100 84
1 0 0 0 0 0 0 5 1 8 5 47 8 1 0 5 5 5 4 6 5 93 95 80 98 100 100 97 36 97 100 100 100 100 99 77 55 61 100 100 100 31 34
0 0 0 0 0 0 0 0 0 5 6 38 18 4 5 5 5 5 8 94 5 60 99 100 100 100 100 100 9 24 100 100 100 100 100 100 23 100 100 100 80 95 100
0 0 0 0 0 0 0 0 0 0 50 96 6 2 5 5 5 5 5 32 5 5 46 100 100 100 100 100 8 49 90 100 100 100 100 100 66 100 100 100 100 100 100
0 0 0 0 15 0 0 0 0 0 6 49 2 0 10 5 5 5 12 5 5 5 9 100 100 100 100 80 5 12 97 51 16 90 68 74 99 100 100 100 100 77 79
0 0 0 0 0 0 0 0 0 0 1 60 2 0 2 1 5 5 61 62 74 71 6 42 100 100 100 52 64 100 92 100 96 90 85 77 100 10 100 100 100 100 92
0 0 0 38 0 0 0 0 0 0 0 5 4 0 0 0 0 0 5 5 5 2 4 6 65 86 49 80 56 100 100 100 97 100 100 100 49 6 98 100 100 99 2
0 0 0 1 63 9 0 0 0 0 0 2 5 0 0 4 1 0 1 5 5 4 5 2 4 85 72 94 100 100 100 100 99 83 100 100 91 96 100 100 100 33 4
0 0 0 0 25 90 8 0 47 0 0 0 3 5 0 4 5 0 3 41 96 100 17 1 20 99 68 100 88 99 93 46 5 84 100 37 99 100 100 100 80 5 5
0 0 0 0 0 18 100 2 3 88 13 10 5 0 0 0 3 15 5 48 92 81 6 0 69 90 61 6 12 100 100 81 100 99 41 100 100 100 100 72 23 5 5